• In Portugal
  • List of Countries
  • For 7 days
  • Water Temperature
  • Satellite Maps
  • Weather Map
  • Weather Widgets
  • user-avatar
    Login

    Hourly Weather Fier

    Today, 24 September, Monday

    Time Temperature Precipitation Wind Pressure Humidity
    00:00 +24°C° 0 mm 2 mps 762 mmHg 61%
    01:00 +24°C° 0 mm 2 mps 761 mmHg 62%
    02:00 +24°C° 0 mm 2 mps 761 mmHg 64%
    03:00 +22°C° 0 mm 3 mps 761 mmHg 66%
    04:00 +22°C° 0 mm 3 mps 761 mmHg 67%
    05:00 +24°C° 0 mm 3 mps 761 mmHg 65%
    06:00 +24°C° 0 mm 3 mps 761 mmHg 62%
    07:00 +25°C° 0 mm 3 mps 760 mmHg 60%
    08:00 +27°C° 0 mm 4 mps 760 mmHg 53%
    09:00 +29°C° 0 mm 4 mps 760 mmHg 46%
    10:00 +32°C° 0 mm 4 mps 760 mmHg 39%
    11:00 +33°C° 0 mm 4 mps 759 mmHg 37%
    12:00 +33°C° 0 mm 4 mps 759 mmHg 36%
    13:00 +34°C° 0 mm 5 mps 759 mmHg 35%
    14:00 +33°C° 0 mm 4 mps 759 mmHg 39%
    15:00 +33°C° 0 mm 4 mps 759 mmHg 43%
    16:00 +32°C° 0 mm 4 mps 759 mmHg 47%
    17:00 +29°C° 0.2 mm 3 mps 759 mmHg 57%
    18:00 +27°C° 0.2 mm 2 mps 760 mmHg 67%
    19:00 +25°C° 0.2 mm 2 mps 760 mmHg 77%
    20:00 +25°C° 0 mm 2 mps 761 mmHg 77%
    21:00 +24°C° 0 mm 2 mps 762 mmHg 77%
    22:00 +24°C° 0 mm 2 mps 762 mmHg 77%
    23:00 +22°C° 0 mm 3 mps 762 mmHg 73%

    Tomorrow, 25 September, Tuesday

    Time Temperature Precipitation Wind Pressure Humidity
    00:00 +21°C° 0 mm 4 mps 763 mmHg 69%
    01:00 +20°C° 0 mm 4 mps 763 mmHg 65%
    02:00 +20°C° 0 mm 5 mps 763 mmHg 63%
    03:00 +19°C° 0 mm 5 mps 763 mmHg 61%
    04:00 +17°C° 0 mm 6 mps 763 mmHg 58%
    05:00 +19°C° 0 mm 6 mps 764 mmHg 55%
    06:00 +19°C° 0 mm 6 mps 764 mmHg 52%
    07:00 +19°C° 0 mm 6 mps 764 mmHg 49%
    08:00 +21°C° 0 mm 6 mps 764 mmHg 44%
    09:00 +23°C° 0 mm 6 mps 765 mmHg 39%
    10:00 +26°C° 0 mm 6 mps 765 mmHg 33%
    11:00 +27°C° 0 mm 6 mps 765 mmHg 32%
    12:00 +28°C° 0 mm 6 mps 764 mmHg 30%
    13:00 +29°C° 0 mm 6 mps 764 mmHg 29%
    14:00 +28°C° 0 mm 7 mps 764 mmHg 29%
    15:00 +28°C° 0 mm 7 mps 764 mmHg 29%
    16:00 +27°C° 0 mm 7 mps 764 mmHg 28%
    17:00 +24°C° 0 mm 7 mps 765 mmHg 30%
    18:00 +22°C° 0 mm 7 mps 765 mmHg 31%
    19:00 +20°C° 0 mm 6 mps 766 mmHg 32%
    20:00 +19°C° 0 mm 6 mps 766 mmHg 33%
    21:00 +17°C° 0 mm 6 mps 767 mmHg 33%
    22:00 +16°C° 0 mm 6 mps 767 mmHg 34%
    23:00 +16°C° 0 mm 6 mps 767 mmHg 35%

    Day after tomorrow, 26 September, Wednesday

    Time Temperature Precipitation Wind Pressure Humidity
    00:00 +15°C° 0 mm 6 mps 768 mmHg 36%
    01:00 +14°C° 0 mm 6 mps 768 mmHg 37%
    02:00 +13°C° 0 mm 6 mps 768 mmHg 38%
    03:00 +13°C° 0 mm 6 mps 768 mmHg 39%
    04:00 +11°C° 0 mm 6 mps 768 mmHg 40%
    05:00 +13°C° 0 mm 6 mps 768 mmHg 39%
    06:00 +13°C° 0 mm 6 mps 769 mmHg 38%
    07:00 +14°C° 0 mm 6 mps 769 mmHg 37%
    08:00 +16°C° 0 mm 7 mps 769 mmHg 33%
    09:00 +18°C° 0 mm 7 mps 769 mmHg 29%
    10:00 +21°C° 0 mm 7 mps 769 mmHg 25%
    11:00 +21°C° 0 mm 7 mps 769 mmHg 23%
    12:00 +22°C° 0 mm 7 mps 769 mmHg 22%
    13:00 +23°C° 0 mm 7 mps 769 mmHg 20%
    14:00 +22°C° 0 mm 7 mps 769 mmHg 20%
    15:00 +22°C° 0 mm 7 mps 768 mmHg 21%
    16:00 +22°C° 0 mm 7 mps 768 mmHg 21%
    17:00 +20°C° 0 mm 6 mps 769 mmHg 24%
    18:00 +17°C° 0 mm 6 mps 769 mmHg 28%
    19:00 +15°C° 0 mm 5 mps 770 mmHg 31%
    20:00 +14°C° 0 mm 5 mps 770 mmHg 33%
    21:00 +14°C° 0 mm 5 mps 770 mmHg 35%
    22:00 +13°C° 0 mm 5 mps 771 mmHg 37%
    23:00 +13°C° 0 mm 4 mps 770 mmHg 39%

    27 September, Thursday

    Time Temperature Precipitation Wind Pressure Humidity
    00:00 +12°C° 0 mm 4 mps 770 mmHg 41%
    01:00 +12°C° 0 mm 4 mps 770 mmHg 44%
    02:00 +11°C° 0 mm 4 mps 770 mmHg 44%
    03:00 +11°C° 0 mm 4 mps 770 mmHg 45%
    04:00 +11°C° 0 mm 4 mps 769 mmHg 45%
    05:00 +12°C° 0 mm 4 mps 769 mmHg 43%
    06:00 +12°C° 0 mm 4 mps 769 mmHg 40%
    07:00 +13°C° 0 mm 4 mps 769 mmHg 37%
    08:00 +17°C° 0 mm 4 mps 768 mmHg 31%
    09:00 +19°C° 0 mm 4 mps 768 mmHg 24%
    10:00 +22°C° 0 mm 4 mps 767 mmHg 18%
    11:00 +23°C° 0 mm 5 mps 766 mmHg 16%
    12:00 +25°C° 0 mm 5 mps 766 mmHg 15%
    13:00 +27°C° 0 mm 6 mps 765 mmHg 13%
    14:00 +26°C° 0 mm 6 mps 764 mmHg 14%
    15:00 +26°C° 0 mm 6 mps 764 mmHg 14%
    16:00 +26°C° 0 mm 7 mps 763 mmHg 15%
    17:00 +23°C° 0 mm 7 mps 763 mmHg 18%
    18:00 +20°C° 0 mm 6 mps 763 mmHg 22%
    19:00 +17°C° 0 mm 6 mps 763 mmHg 25%
    20:00 +16°C° 0 mm 6 mps 763 mmHg 26%
    21:00 +16°C° 0 mm 5 mps 763 mmHg 28%
    22:00 +15°C° 0 mm 5 mps 763 mmHg 29%
    23:00 +14°C° 0 mm 5 mps 763 mmHg 31%

    28 September, Friday

    Time Temperature Precipitation Wind Pressure Humidity
    00:00 +14°C° 0 mm 4 mps 763 mmHg 33%
    01:00 +14°C° 0 mm 4 mps 762 mmHg 35%
    02:00 +13°C° 0 mm 4 mps 762 mmHg 35%
    03:00 +13°C° 0 mm 4 mps 762 mmHg 35%
    04:00 +13°C° 0 mm 4 mps 761 mmHg 36%
    05:00 +14°C° 0 mm 4 mps 761 mmHg 34%
    06:00 +15°C° 0 mm 4 mps 761 mmHg 33%
    07:00 +17°C° 0 mm 4 mps 761 mmHg 32%
    08:00 +20°C° 0 mm 3 mps 761 mmHg 27%
    09:00 +22°C° 0 mm 3 mps 761 mmHg 22%
    10:00 +26°C° 0 mm 2 mps 760 mmHg 17%
    11:00 +27°C° 0 mm 3 mps 760 mmHg 19%
    12:00 +28°C° 0 mm 3 mps 760 mmHg 20%
    13:00 +29°C° 0 mm 3 mps 759 mmHg 22%
    14:00 +29°C° 0 mm 4 mps 759 mmHg 23%
    15:00 +28°C° 0 mm 4 mps 759 mmHg 24%
    16:00 +28°C° 0 mm 4 mps 759 mmHg 25%
    17:00 +26°C° 0 mm 4 mps 759 mmHg 29%
    18:00 +23°C° 0 mm 4 mps 759 mmHg 34%
    19:00 +20°C° 0 mm 3 mps 760 mmHg 39%
    20:00 +20°C° 0 mm 3 mps 760 mmHg 39%
    21:00 +19°C° 0 mm 3 mps 760 mmHg 39%
    22:00 +19°C° 0 mm 3 mps 760 mmHg 40%
    23:00 +18°C° 0 mm 3 mps 760 mmHg 40%

    29 September, Saturday

    Time Temperature Precipitation Wind Pressure Humidity
    00:00 +18°C° 0 mm 2 mps 760 mmHg 40%
    01:00 +18°C° 0 mm 2 mps 760 mmHg 40%
    02:00 +17°C° 0 mm 2 mps 760 mmHg 40%
    03:00 +17°C° 0 mm 2 mps 760 mmHg 40%
    04:00 +17°C° 0 mm 2 mps 760 mmHg 40%
    05:00 +18°C° 0 mm 2 mps 761 mmHg 38%
    06:00 +19°C° 0 mm 2 mps 761 mmHg 37%
    07:00 +20°C° 0 mm 2 mps 761 mmHg 36%
    08:00 +23°C° 0 mm 2 mps 761 mmHg 30%
    09:00 +26°C° 0 mm 2 mps 761 mmHg 25%
    10:00 +28°C° 0 mm 1 mps 761 mmHg 20%
    11:00 +29°C° 0 mm 2 mps 761 mmHg 19%
    12:00 +30°C° 0 mm 2 mps 761 mmHg 18%
    13:00 +31°C° 0 mm 3 mps 761 mmHg 18%
    14:00 +30°C° 0 mm 3 mps 761 mmHg 19%
    15:00 +30°C° 0 mm 4 mps 760 mmHg 20%
    16:00 +29°C° 0 mm 4 mps 760 mmHg 22%
    17:00 +27°C° 0 mm 4 mps 761 mmHg 26%
    18:00 +24°C° 0 mm 3 mps 762 mmHg 31%
    19:00 +21°C° 0 mm 3 mps 762 mmHg 35%
    20:00 +21°C° 0 mm 3 mps 762 mmHg 34%
    21:00 +20°C° 0 mm 3 mps 763 mmHg 33%
    22:00 +20°C° 0 mm 2 mps 763 mmHg 31%
    23:00 +19°C° 0 mm 2 mps 763 mmHg 31%
    Show more

    3.3.7123123